Weather Roundup
Issued by NWS

Home | Current Version | Previous Version | Graphics & Text | Print | Product List | Glossary Off
Versions: 1 2 3 4 5 6 7 8 9 10 11 12 13 14 15 16 17 18 19 20 21 22 23 24 25 26 27 28 29 30 31 32 33 34 35 36 37 38 39 40 41 42 43 44 45 46 47 48 49 50

872
NZUS93 KARX 240510
HRRWXR

CURRENT HOURLY OBSERVATIONS ACROSS
MUCH OF THE UPPER MISSISSIPPI VALLEY
NATIONAL WEATHER SERVICE LA CROSSE WI
1100 PM CST TUE JAN 23 2018


...SOUTHEAST MINNESOTA...


CITY           SKY/WX    TMP DP  RH WIND       PRES   REMARKS
ROCHESTER      CLOUDY    15  13  91 W6        30.16R WCI   6
ROCHESTER/MAYO FAIR      17  15  90 CALM      30.18R
WINONA         FAIR      18  16  93 CALM      30.20R
AUSTIN         FAIR      18  16  93 CALM      30.17S
ALBERT LEA     FAIR      19  16  86 CALM      30.17S
DODGE CENTER   FAIR      12  10  92 W5        30.16R WCI   4
PRESTON        MOCLDY    15  12  88 W3        30.17R
OWATONNA       FAIR      16  12  86 CALM      30.17S
FARIBAULT      FAIR      14  12  92 CALM      30.18R
$$

...ELSEWHERE IN MINNESOTA...


CITY           SKY/WX    TMP DP  RH WIND       PRES   REMARKS
MINNEAPOLIS    MOCLDY    18  13  80 SE3       30.19R
INTNL FALLS    CLOUDY    10  -2  58 SE3       30.13R
DULUTH         FAIR       8   0  69 CALM      30.13R
RED WING       FAIR      12   7  79 CALM      30.20R
REDWOOD FALLS  CLOUDY    25  21  85 W6        30.18S WCI  18
MANKATO        FAIR      18  16  92 W3        30.19R
WORTHINGTON    CLOUDY    22  21  96 NW9       30.17R FOG     WCI  12
FAIRMONT       CLOUDY    19  17  92 W6        30.20R WCI  11
$$

...SOUTHWEST WISCONSIN...


CITY           SKY/WX    TMP DP  RH WIND       PRES   REMARKS
LA CROSSE      FAIR      20  16  84 CALM      30.20R
PRAIRIE DU CHI CLOUDY    25  18  76 W5        30.20S WCI  19
BOSCOBEL       CLOUDY    26  18  71 N7        30.20R WCI  18
LONE ROCK      CLOUDY    25  21  85 N6        30.19R WCI  18
PLATTEVILLE    CLOUDY    25  23  93 NW6       30.17R WCI  18
FORT MC COY    CLOUDY    21  19  89 W3        30.20R
CAMP DOUGLAS   CLOUDY    21  19  93 W6        30.16R WCI  14
MAUSTON-NEW LI CLOUDY    23  20  87 NW5       30.16R WCI  17
VIROQUA        CLOUDY    21  20  98 NW5       30.16R WCI  15
WIS DELLS      CLOUDY    23  19  84 NW5       30.14S WCI  17
$$

...ELSEWHERE IN WISCONSIN...


CITY           SKY/WX    TMP DP  RH WIND       PRES   REMARKS
MILWAUKEE      CLOUDY    29  23  78 W6        30.14R WCI  23
MADISON        CLOUDY    25  20  81 NW3       30.15S
GREEN BAY      FAIR      21  15  78 N8        30.15R WCI  11
EAU CLAIRE     CLOUDY    15  13  91 CALM      30.18S
BLACK RVR FLS  CLOUDY    22  17  82 W6        30.19R WCI  14
MEDFORD        CLOUDY    19  13  80 N6        30.12R WCI  10
WAUSAU         CLOUDY    19  15  84 NW3       30.11R
WIS RAPIDS     FAIR      18  14  84 NW5       30.15S WCI  11
MARSHFIELD     FAIR      15  13  91 NW5       30.13R WCI   8
RICE LAKE      FAIR       3   0  88 CALM      30.19R
$$

...NORTHEAST IOWA...


CITY           SKY/WX    TMP DP  RH WIND       PRES   REMARKS
WATERLOO       FAIR      19  16  88 W5        30.21R WCI  12
DUBUQUE        CLOUDY    22  18  85 NW7       30.17R WCI  13
DECORAH        FAIR      18  16  93 CALM      30.17R
MASON CITY     CLOUDY    21  17  84 W9        30.20R WCI  11
CHARLES CITY   CLOUDY    21  21 100 NW8       30.20R WCI  12
OELWEIN        FAIR      21  21 100 NW6       30.19R WCI  14
$$

...ELSEWHERE IN IOWA...


CITY           SKY/WX    TMP DP  RH WIND       PRES   REMARKS
DES MOINES     CLOUDY    26  21  81 NW6       30.22S WCI  19
IOWA CITY      CLOUDY    27  18  69 NW10      30.23R WCI  17
FORT DODGE     FLURRIES  24  21  88 W5        30.20F WCI  18
MARSHALLTOWN   MOCLDY    24  20  84 W10       30.21R WCI  14
CEDAR RAPIDS   CLOUDY    24  18  77 NW10      30.19R WCI  14
$$

...NORTHERN ILLINOIS...


CITY           SKY/WX    TMP DP  RH WIND       PRES   REMARKS
CHICAGO-OHARE  CLOUDY    28  22  78 W8        30.16R WCI  20
CHICAGO-MIDWAY CLOUDY    29  22  75 NW7       30.16R WCI  22
MOLINE         CLOUDY    27  19  72 NW9       30.21R WCI  18
ROCKFORD       CLOUDY    28  22  78 NW7       30.18R WCI  21
PEORIA         CLOUDY    29  22  75 W7        30.21S WCI  22
$$

NOTE: "FAIR" INDICATES FEW OR NO CLOUDS BELOW 12,000 FEET WITH NO
SIGNIFICANT WEATHER AND/OR OBSTRUCTIONS TO VISIBILITY. WIND
SPEEDS ARE IN MILES-PER-HOUR.




USA.gov is the U.S. government's official web portal to all federal, state and local government web resources and services.